Regional Weather Roundup
Issued by NWS

Home | Current Version | Previous Version | Graphics & Text | Print | Product List | Glossary On
Versions: 1 2 3 4 5 6 7 8 9 10 11 12 13 14 15 16 17 18 19 20 21 22 23 24 25 26 27 28 29 30 31 32 33 34 35 36 37 38 39 40 41 42 43 44 45 46 47 48 49 50
000
ASUS43 KDTX 260610
RWRMI
MICHIGAN HOURLY REGIONAL WEATHER ROUNDUP
NATIONAL WEATHER SERVICE DETROIT/PONTIAC MI
200 AM EDT SAT JUL 26 2014

NOTE: "FAIR" INDICATES FEW OR NO CLOUDS BELOW 12,000 FEET WITH NO
SIGNIFICANT WEATHER AND/OR OBSTRUCTION TO VISIBILITY.

MIZ047>049-052>055-059>063-066>070-074>076-081>083-260700-
SOUTHEAST LOWER MICHIGAN

CITY           SKY/WX    TMP DP  RH WIND       PRES   REMARKS
ADRIAN         CLEAR     60  58  92 CALM      29.98F
6HR MIN TEMP:  60; 6HR MAX TEMP:  70; 6HR PCP: TRACE;

ALMA           CLEAR     62  57  84 S7        29.93F
6HR MIN TEMP:  60; 6HR MAX TEMP:  73;

ANN ARBOR      CLEAR     58  55  90 CALM      29.97F
BAD AXE        CLOUDY    64  57  77 SW5       29.93F
6HR MIN TEMP:  62; 6HR MAX TEMP:  71;

DETROIT CITY   CLEAR     68  55  63 S5        29.97F
6HR MIN TEMP:  67; 6HR MAX TEMP:  76; 6HR PCP: TRACE;

DETROIT        PTCLDY    63  58  83 S5        29.98F
6HR MIN TEMP:  63; 6HR MAX TEMP:  74; 6HR PCP: TRACE;

FLINT          PTCLDY    64  55  72 SW5       29.95F
6HR MIN TEMP:  64; 6HR MAX TEMP:  72;

GROSSE ILE     MOCLDY    66  59  77 SW3       29.96F
HILLSDALE      CLEAR     58  58 100 CALM      29.98F
6HR MIN TEMP:  58; 6HR MAX TEMP:  67;

HOWELL         CLEAR     61  56  84 CALM      29.96F

CITY           SKY/WX    TMP DP  RH WIND       PRES   REMARKS
JACKSON        CLEAR     60  57  89 S3        29.97F
6HR MIN TEMP:  60; 6HR MAX TEMP:  68;

LAMBERTVILLE   CLEAR     61  59  94 CALM      29.98F
LANSING        CLEAR     63  57  81 S8        29.95F
6HR MIN TEMP:  63; 6HR MAX TEMP:  72;

LAPEER         NOT AVBL
MASON          CLEAR     60  57  87 CALM      29.96F
MONROE         FOG       63  61  94 CALM      29.97S VSB 1/2
MT. CLEMENS    MOCLDY    68  53  58 SW7       29.95F
6HR MIN TEMP:  67; 6HR MAX TEMP:  74;

PONTIAC        CLEAR     64  52  64 S5        29.96F
6HR MIN TEMP:  64; 6HR MAX TEMP:  73; 6HR PCP: TRACE;

PORT HOPE        N/A     67  56  67 VRB6      29.90F
6HR MIN TEMP:  66; 6HR MAX TEMP:  72;

PORT HURON     MOCLDY    64  57  77 SW3       29.96S
TRI CITIES     CLOUDY    67  57  70 SW8       29.93F
6HR MIN TEMP:  67; 6HR MAX TEMP:  73;

YPSILANTI      MOCLDY    66  57  72 S7        29.98S
6HR MIN TEMP:  66; 6HR MAX TEMP:  77;

$$
MIZ043>046-050>051-056>058-064>065-071>073-077>080-260700-
SOUTHWEST LOWER MICHIGAN

CITY           SKY/WX    TMP DP  RH WIND       PRES   REMARKS
BATTLE CREEK   CLEAR     63  57  81 S6        29.96F
6HR MIN TEMP:  63; 6HR MAX TEMP:  70;

BENTON HARBOR  CLEAR     63  58  83 S5        29.93F
6HR MIN TEMP:  63; 6HR MAX TEMP:  72;

BIG RAPIDS     CLEAR     62  56  82 CALM      29.92S
6HR MIN TEMP:  62; 6HR MAX TEMP:  70;

COLDWATER      CLEAR     62  59  90 S3        29.96F
6HR MIN TEMP:  61; 6HR MAX TEMP:  69;

HOLLAND        CLOUDY    64  59  83 S6        29.93F
6HR MIN TEMP:  62; 6HR MAX TEMP:  72;

GRAND RAPIDS   CLEAR     63  59  87 S7        29.93F
6HR MIN TEMP:  63; 6HR MAX TEMP:  73;

KALAMAZOO      CLEAR     64  59  83 S6        29.95F
6HR MIN TEMP:  63; 6HR MAX TEMP:  70;

MARSHALL       CLEAR     60  57  91 S8        29.96F
MUSKEGON       CLOUDY    68  59  73 S12       29.91F
6HR MIN TEMP:  67; 6HR MAX TEMP:  71;

$$
MIZ016>042-260700-
NORTHERN LOWER MICHIGAN

CITY           SKY/WX    TMP DP  RH WIND       PRES   REMARKS
ALPENA         MOCLDY    63  58  83 SW3       29.88F
6HR MIN TEMP:  61; 6HR MAX TEMP:  74; 6HR PCP:  0.01;

BEAVER ISLAND  CLOUDY    64  59  84 SW12      29.84S
6HR MIN TEMP:  63; 6HR MAX TEMP:  65;

BELLAIRE       CLOUDY    67  57  71 SW3       29.86F
6HR MIN TEMP:  66; 6HR MAX TEMP:  69;

CADILLAC       CLOUDY    63  58  85 SW10      29.90F
CHARLEVOIX     CLOUDY    67  58  72 SW8       29.88F
6HR MIN TEMP:  65; 6HR MAX TEMP:  70;

FRANKFORT      CLOUDY    68  57  66 SW6       29.86F
GAYLORD        PTCLDY    62  55  77 SW9       29.89F
6HR MIN TEMP:  62; 6HR MAX TEMP:  68;

GRAYLING       MOCLDY    63  57  82 S5        29.90F
6HR MIN TEMP:  62; 6HR MAX TEMP:  69;

HARBOR SPRINGS CLOUDY    67  58  73 SW5       29.85F
HOUGHTON LAKE  MOCLDY    64  57  78 SW8       29.91F
6HR MIN TEMP:  64; 6HR MAX TEMP:  69;

MANISTEE       PTCLDY    64  55  72 S3        29.88F
OSCODA         CLOUDY    66  59  76 SW6       29.89F
PELLSTON       CLOUDY    64  58  80 S3        29.85F
6HR MIN TEMP:  59; 6HR MAX TEMP:  69; 6HR PCP: TRACE;

TRAVERSE CITY  CLOUDY    68  56  65 VRB6      29.85F
6HR MIN TEMP:  68; 6HR MAX TEMP:  71;

$$
MIZ007>008-015-260700-
EASTERN UPPER MICHIGAN

CITY           SKY/WX    TMP DP  RH WIND       PRES   REMARKS
KINROSS        CLOUDY    61  61 100 S5        29.84F
6HR MIN TEMP:  61; 6HR MAX TEMP:  70;

MACKINAC ISLAN CLOUDY    63  57  82 S6        29.84F
6HR MIN TEMP:  62; 6HR MAX TEMP:  66;

NEWBERRY       CLEAR     57  56  99 S14       29.82F FOG
S. S. MARIE    CLOUDY    63  57  81 SW7       29.83F
6HR MIN TEMP:  62; 6HR MAX TEMP:  70; 6HR PCP: TRACE;

$$
MIZ004>006-011>014-085-260700-
CENTRAL UPPER MICHIGAN

CITY           SKY/WX    TMP DP  RH WIND       PRES   REMARKS
MANISTIQUE     MOCLDY    58  57  97 S9        29.82F FOG
6HR MIN TEMP:  58; 6HR MAX TEMP:  60;

ESCANABA       CLOUDY    64  57  77 SW7       29.82F
6HR MIN TEMP:  64; 6HR MAX TEMP:  70;

MENOMINEE      CLEAR     64  59  82 SW3       29.84R
6HR MIN TEMP:  64; 6HR MAX TEMP:  72;

SAWYER-GWINN   LGT RAIN  64  61  88 SW7       29.82S
6HR MIN TEMP:  64; 6HR MAX TEMP:  72;

$$
MIZ001>003-009>011-084-260700-
WESTERN UPPER MICHIGAN

CITY           SKY/WX    TMP DP  RH WIND       PRES   REMARKS
IRON MOUNTAIN  CLOUDY    66  61  84 SW5       29.83S
6HR MIN TEMP:  65; 6HR MAX TEMP:  69;

HOUGHTON       CLOUDY    65  63  93 CALM      29.78S FOG
6HR MIN TEMP:  65; 6HR MAX TEMP:  67; 6HR PCP: TRACE;

COPPER HARBOR    N/A     64  60  87 CALM      29.77S
6HR MIN TEMP:  63; 6HR MAX TEMP:  67; 6HR PCP:  0.02;

$$

ABBREVIATIONS USED IN REMARKS
   TC - TEMPERATURE IN CELSIUS
  WCI - WIND CHILL INDEX
   HX - HEAT INDEX
  VSB - VISIBILITY




USA.gov is the U.S. government's official web portal to all federal, state and local government web resources and services.